Home > Weather > Anderson > Past weeks

Flag for USA Past Weather in Anderson, South Carolina, USA — Yesterday and Last 2 Weeks

Now
78 °F

Clear.


Feels Like: 80 °F
Forecast: 76 / 96 °F
Wind: 5 mph from Southwest

Location: Anderson County Airport

Current Time: Jul 27, 2016 at 5:46:24 AM

Latest Report: Jul 27, 2016 at 4:56 AM


Visibility: 10 mi

Pressure: 29.98 "Hg

Humidity: 76%

Dew Point: 70 °F

Location of AndersonLocation

Past Weather in Anderson — Graph

°F

Anderson Temperature Yesterday

Maximum temperature yesterday: 98 °F (at 3:56 PM)
Minimum temperature yesterday: 75 °F (at 5:56 AM)
Average temperature yesterday: 86 °F

High & Low Weather Summary for the Past Weeks

 TemperatureHumidityPressure
High99 °F (Jul 14, 3:56 PM)97% (Jul 16, 4:56 AM)30.24 "Hg (Jul 16, 4:56 AM)
Low70 °F (Jul 12, 6:56 AM)24% (Jul 13, 2:56 PM)29.93 "Hg (Jul 25, 5:56 PM)
Average83 °F65%30.06 "Hg
* Reported Jul 12 3:56 AM — Jul 27 3:56 AM, Anderson, Weather by CustomWeather, © 2016

Note: Actual official high and low records may vary slightly from our data, if they occured in-between our weather recording intervals... More about our weather records

Advertising

Anderson Weather History for the Previous 24 Hours

Scroll right to see more
 ConditionsComfort  
Time TempWeatherWind HumidityBarometerVisibility
3:56 AM
Wed, Jul 27
78 °FClear.5 mph76%29.98 "Hg10 mi
2:56 AM78 °FClear.6 mph71%29.98 "Hg10 mi
1:56 AM79 °FClear.5 mph67%29.99 "Hg10 mi
12:56 AM79 °FClear.6 mph67%30.00 "Hg10 mi
11:56 PM
Tue, Jul 26
80 °FClear.No wind64%30.00 "Hg10 mi
10:56 PM82 °FClear.No wind58%29.99 "Hg10 mi
9:56 PM87 °FClear.5 mph50%29.97 "Hg10 mi
8:56 PM89 °FSunny.7 mph45%29.95 "Hg10 mi
7:56 PM93 °FSunny.9 mph38%29.94 "Hg10 mi
6:56 PM96 °FSunny.10 mph35%29.93 "Hg10 mi
5:56 PM98 °FSunny.14 mph31%29.93 "Hg10 mi
4:56 PM98 °FPassing clouds.8 mph33%29.94 "Hg10 mi
3:56 PM98 °FSunny.14 mph33%29.96 "Hg10 mi
2:56 PM97 °FSunny.10 mph36%29.97 "Hg10 mi
1:56 PM95 °FPassing clouds.8 mph41%29.99 "Hg10 mi
12:56 PM94 °FSunny.10 mph43%30.01 "Hg10 mi
11:56 AM91 °FScattered clouds.6 mph50%30.02 "Hg10 mi
10:56 AM88 °FSunny.9 mph59%30.02 "Hg10 mi
9:56 AM83 °FOvercast.7 mph77%30.03 "Hg10 mi
8:56 AM80 °FPartly sunny.5 mph79%30.03 "Hg10 mi
7:56 AM77 °FSunny.No wind88%30.02 "Hg10 mi
6:56 AM75 °FClear.No wind90%30.01 "Hg10 mi
5:56 AM75 °FClear.No wind90%29.99 "Hg10 mi
Weather by CustomWeather, © 2016

See weather overviewHow to use our weather pages